Other Public Products
Issued by NWS Grand Forks, ND

Home | Current Version | Previous Version | Graphics & Text | Print | Product List | Glossary On
Versions: 1 2 3 4 5 6 7 8 9 10 11 12 13 14 15 16 17 18 19 20 21 22 23 24 25 26 27 28 29 30 31 32 33 34 35 36 37 38 39 40 41 42 43 44 45 46 47 48 49 50
000
FPUS83 KFGF 232031
OPUFGF
PRAIRIE TO PINES WEATHER ROUNDUP
NATIONAL WEATHER SERVICE EASTERN NORTH DAKOTA/GRAND FORKS ND
300 PM CDT WED JUL 23 2014

 **SATELLITE DATA USED TO AUGMENT SKY COVER AT AUTOMATED STATIONS**
 *****  WEATHER ACROSS EASTERN NORTH DAKOTA  *****

CITY           SKY/WX    TMP DP  RH WIND       PRES   REMARKS
GRAND FORKS    MOSUNNY   74  59  59 NW8       30.27F
GRAND FORKS AF SUNNY     73  59  61 N7        30.28F
GRAND CITY NWS   N/A     73 N/A N/A MISG        N/A
BUXTON           N/A     78  57  48 N6          N/A
DEVILS LAKE    MOSUNNY   72  55  56 SE6       30.28S
FARGO          MOSUNNY   77  59  53 N9        30.26F
WAHPETON ARPT  MOCLDY    77  50  38 CALM      30.26F
$$

 *****  WEATHER ACROSS CENTRAL AND WESTERN NORTH DAKOTA  *****

CITY           SKY/WX    TMP DP  RH WIND       PRES   REMARKS
JAMESTOWN      MOSUNNY   77  56  48 S6        30.26F
BISMARCK       CLOUDY    80  61  52 SE16      30.23F
MINOT          CLOUDY    74  65  73 E16       30.23F
MINOT AFB      PTSUNNY   73  66  78 E16       30.21F
GARRISON         N/A     79  66  64 S13       30.21F
WILLISTON      MOSUNNY   87  61  41 SE15      30.13F
DICKINSON      MOSUNNY   82  64  54 SE18      30.16F
HETTINGER      MOSUNNY   82  62  50 SE14G26   30.18F
$$

 *****  OTHER OBSERVATIONS NORTHEAST NORTH DAKOTA  *****

CITY           SKY/WX    TMP DP  RH WIND       PRES   REMARKS
WALHALLA       FAIR      72  54  53 NE7         N/A
LANGDON        FAIR      72  55  56 SE3       30.30S
CAVALIER       FAIR      72  54  53 N10       30.28F
GRAFTON        FAIR      72  55  56 NW5       30.28S
CANDO          CLOUDY    72  55  56 SE8       30.29F
FORT TOTTEN    NOT AVBL
ROLLA            N/A     70  57  64 SE7       30.31S
RUGBY          MOCLDY    70  61  73 E12       30.26F
 ***** THE ABOVE OBSERVATIONS ARE NON NWS ARE NOT QUALITY
        CONTROLLED AND MAY MIS-REPORT RAIN FOR SNOW...
$$

 *****  OTHER OBSERVATIONS SOUTHEAST NORTH DAKOTA *****

CITY           SKY/WX    TMP DP  RH WIND       PRES   REMARKS
COOPERSTOWN    NOT AVBL
VALLEY CITY    CLOUDY    75  57  53 SE3       30.28S
OAKES          NOT AVBL
GWINNER        CLEAR     79  55  44 E6        30.28F
BUFFALO        NOT AVBL
WYNDMERE       NOT AVBL
 ***** THE ABOVE OBSERVATIONS ARE NON NWS ARE NOT QUALITY
       CONTROLLED AND MAY MIS-REPORT RAIN FOR SNOW...
$$

  *****  WEATHER ACROSS NORTHERN MINNESOTA  *****

CITY           SKY/WX    TMP DP  RH WIND       PRES   REMARKS
FLAG ISLAND    SUNNY     70  48  46 N7        30.27S
WARROAD        SUNNY     70  55  60 NE7       30.28F
ROSEAU         MOSUNNY   70  57  64 NE12      30.27F
HALLOCK        SUNNY     72  52  49 N7        30.27F
THF RVR FALLS  MOSUNNY   72  55  56 N9        30.27S
HALSTAD          N/A     77  55  47 N5          N/A
FOSSTON        PTSUNNY   72  57  60 NW6       30.28S
BAUDETTE       SUNNY     73  51  46 N9        30.28S
WASKISH        MOSUNNY   75  55  50 CALM      30.26S
CROOKSTON      MOSUNNY   73  57  56 N8        30.28S
$$
  *****  WEATHER ACROSS CENTRAL AND WEST MINNESOTA  *****

CITY           SKY/WX    TMP DP  RH WIND       PRES   REMARKS
BEMIDJI        MOSUNNY   74  53  46 N13G18    30.26S
PARK RAPIDS    MOSUNNY   76  51  41 N10       30.26S
WADENA         MOSUNNY   75  55  50 N7        30.26S
DETROIT LAKES  SUNNY     73  57  56 N7        30.28F
MOORHEAD       SUNNY     75  61  60 N5        30.27S
FERGUS FALLS   CLOUDY    75  54  46 NW6       30.25F
ELBOW LAKE     FAIR      75  57  52 N7        30.26F
MORRIS MN      MOSUNNY   79  57  47 E6        30.25F
STAPLES        MOSUNNY   75  48  38 N6        30.25F
WHEATON        MOSUNNY   77  55  47 N6        30.27S
$$
  *****  WEATHER ELSEWHERE ACROSS MINNESOTA  *****

CITY           SKY/WX    TMP DP  RH WIND       PRES   REMARKS
DULUTH         MOSUNNY   74  53  48 N8        30.23F
INTRNTL FALLS  MOSUNNY   70  50  49 CALM      30.27S
ELY            MOSUNNY   72  48  43 NW9       30.25S
CLOQUET        MOSUNNY   73  48  40 N8        30.24S
BRAINERD       SUNNY     76  50  40 N8        30.25F
HIBBING        MOSUNNY   75  52  44 N10       30.25F
ALEXANDRIA     MOSUNNY   77  54  44 NW8       30.28F
SAINT CLOUD    MOSUNNY   80  47  31 N7        30.25S
MINNEAPOLIS    MOSUNNY   83  51  33 W8        30.21F
$$

  *****  WEATHER ACROSS SOUTH DAKOTA  *****

CITY           SKY/WX    TMP DP  RH WIND       PRES   REMARKS
SIOUX FALLS    MOSUNNY   80  58  46 NE9       30.24F
BROOKINGS      NOT AVBL
WATERTOWN      MOSUNNY   78  52  40 VRB3      30.27F
HURON          SUNNY     81  54  39 E8        30.23F
SISSETON         N/A     79  57  46 VRB3      30.25F
ABERDEEN       CLOUDY    78  55  44 SE7       30.25F
MITCHELL       SUNNY     82  58  43 E8        30.23F
PIERRE         SUNNY     86  54  33 SE20G29   30.19F
MOBRIDGE       SUNNY     81  59  47 SE14G23   30.20F
RAPID CITY     SUNNY     81  63  54 SE17      30.19F
$$

  *****  SOME WEATHER IN NEARBY STATES *****

CITY           SKY/WX    TMP DP  RH WIND       PRES   REMARKS
GLASGOW MT     MOSUNNY   89  58  34 E16G24    30.04F
GREAT FALLS MT SUNNY     86  49  27 VRB3      30.03F
CHEYENNE WY    SUNNY     80  61  52 S13G30    30.36F
SCOTTSBLUFF NE SUNNY     90  65  43 S17       30.21F HX  92
OMAHA NE       MOSUNNY   84  58  40 NE8       30.20F
DES MOINES IA  MOSUNNY   84  58  40 NE12      30.17F
DAVENPORT IA   MOSUNNY   78  58  49 N9        30.18F
CHICAGO IL     MOSUNNY   74  45  35 NE22G29   30.15S
EAU CLAIRE WI  MOSUNNY   80  54  40 VRB3      30.19F
LA CROSSE WI   PTSUNNY   82  55  39 NW8       30.19F
$$

  *****  SOME NATIONAL WEATHER *****

CITY           SKY/WX    TMP DP  RH WIND       PRES   REMARKS
LA GUARDIA NY  MOSUNNY   87  72  60 S15G23    29.82F HX  93
RALEIGH NC     MOSUNNY   92  72  51 SW12      29.97F HX  99
ATLANTA GA     PTSUNNY   86  69  56 SW9       30.03F HX  90
NEW ORLEANS LA CLOUDY    83  73  72 VRB5      30.02F
OKLAHOMA CITY  PTSUNNY   98  71  41 VRB3      30.10F HX 106
ALBUQUERQUE NM PTSUNNY   84  54  35 S6        30.34F
SALT LAKE CITY MOSUNNY  101  34   9 S15G26    30.06F HX  95
LOS ANGELES CA MOSUNNY   78  57  48 W15       29.98F
BOISE ID       SUNNY     89  42  19 W5        30.00F
SEATTLE WA     LGT RAIN  59  57  93 S8        30.03R
$$

*** WEATHER ACROSS MANITOBA...SASKATCHEWAN AND ONTARIO ***
                ***ONTARIO***

CITY           SKY/WX    TMP DP  RH WIND       PRES   REMARKS
GERALDTON      PTSUNNY   68  46  45 N8        30.17F
THUNDER BAY    PTSUNNY   70  55  60 E10       30.21S
SIOUX LOOKOUT  MOSUNNY   68  46  45 N5        30.26F
TORONTO        PTSUNNY   70  57  64 N20       29.97R
BIG TROUT LK   SUNNY     73  50  43 NW15G22   30.07S
PICKLE LAKE    PTSUNNY   73  43  33 NW9G18    30.18F
DRYDEN         PTSUNNY   70  46  43 N7        30.27F
KENORA         MOSUNNY   68  46  45 N6        30.30S
$$
                *** MANITOBA***

CITY           SKY/WX    TMP DP  RH WIND       PRES   REMARKS
BRANDON        MOSUNNY   73  50  43 NE8       30.29F
DAUPHIN        SUNNY     73  54  49 E12       30.27F
ISLAND LAKE    MOSUNNY   75  48  38 W8        30.20F
PILOT MOUND      N/A     70  54  56 NE5         N/A
THE PAS        MOSUNNY   77  50  38 S3        30.23
THOMPSON       MOSUNNY   81  50  34 NW7       30.15F
WINNIPEG       MOSUNNY   73  48  40 NW9       30.29F
LYNN LAKE      MOSUNNY   81  43  26 NW7       30.16F
CHURCHILL      MOSUNNY   63  48  59 NE6       30.08S
GILLAM         PTSUNNY   79  52  38 W15       30.09F
$$
                ***SASKATCHEWAN***

CITY           SKY/WX    TMP DP  RH WIND       PRES   REMARKS
ESTEVAN        CLOUDY    72  63  73 SE16      30.23S
KINDERSLEY     PTSUNNY   77  64  65 SE16G22   30.07
LLOYDMINSTER   CLOUDY    73  63  68 S8G20     30.03F
PRINCE ALBERT  PTSUNNY   77  59  53 S13       30.18F
REGINA         PTSUNNY   81  57  44 SE17G24   30.19F
YORKTON        SUNNY     75  54  46 SE13      30.26F


USA.gov is the U.S. government's official web portal to all federal, state and local government web resources and services.